Regional Weather Roundup
Issued by NWS

Home | Current Version | Previous Version | Graphics & Text | Print | Product List | Glossary Off
Versions: 1 2 3 4 5 6 7 8 9 10 11 12 13 14 15 16 17 18 19 20 21 22 23 24 25 26 27 28 29 30 31 32 33 34 35 36 37 38 39 40 41 42 43 44 45 46 47 48 49 50

000
ASUS43 KDTX 281110
RWRMI
MICHIGAN HOURLY REGIONAL WEATHER ROUNDUP
NATIONAL WEATHER SERVICE DETROIT/PONTIAC MI
700 AM EDT TUE APR 28 2015

NOTE: "FAIR" INDICATES FEW OR NO CLOUDS BELOW 12,000 FEET WITH NO
SIGNIFICANT WEATHER AND/OR OBSTRUCTION TO VISIBILITY.

MIZ047>049-052>055-059>063-066>070-074>076-081>083-281200-
SOUTHEAST LOWER MICHIGAN

CITY           SKY/WX    TMP DP  RH WIND       PRES   REMARKS
ADRIAN         CLEAR     32  30  92 CALM      30.14R
ALMA           CLEAR     32  32  99 CALM      30.14S
ANN ARBOR      CLEAR     26  26 100 CALM      30.13R
BAD AXE        CLEAR     31  29  94 CALM      30.13R
CARO           CLEAR     29  28  94 CALM      30.13R
DETROIT CITY   FAIR      36  30  79 NW3       30.12R
DETROIT        PTCLDY    37  32  82 W3        30.13R
FLINT          CLEAR     31  28  89 CALM      30.14R
GROSSE ILE     CLEAR     36  30  80 CALM      30.11R
HILLSDALE      CLEAR     33  33 100 CALM      30.12R FOG
HOWELL         CLEAR     31  29  95 CALM      30.12R

CITY           SKY/WX    TMP DP  RH WIND       PRES   REMARKS
JACKSON        CLEAR     31  29  92 CALM      30.13R
LAMBERTVILLE   FAIR      32  30  93 CALM      30.13R
LANSING        CLEAR     34  31  88 CALM      30.14R
LAPEER         FAIR      28  27  96 CALM      30.12R
MASON          CLEAR     30  28  93 CALM      30.13R
MONROE         CLEAR     34  32  93 CALM      30.11R
MT. CLEMENS    PTCLDY    36  32  87 NW3       30.09
PONTIAC        PTCLDY    34  32  92 CALM      30.11R
PORT HOPE        N/A     34  32  92 CALM      30.11R
PORT HURON     CLEAR     30  30 100 CALM      30.11R
TRI CITIES     CLEAR     38  34  85 NW5       30.14R WCI  34
MIDLAND        FAIR      31  31  96 CALM      30.14R
TROY           CLEAR     39  32  75 NW3       30.13R
SAGINAW HB     CLEAR     36  32  87 NW3       30.13R
$$
MIZ043>046-050>051-056>058-064>065-071>073-077>080-281200-
SOUTHWEST LOWER MICHIGAN

CITY           SKY/WX    TMP DP  RH WIND       PRES   REMARKS
BATTLE CREEK   CLEAR     33  30  88 CALM      30.14R
BENTON HARBOR  CLEAR     30  30 100 CALM      30.14R
BIG RAPIDS     CLEAR     32  30  93 CALM      30.13R
COLDWATER      CLEAR     31  31  98 NW3       30.13R
FREMONT        FAIR      35  33  90 E3        30.13S
HOLLAND        CLEAR     33  31  92 SE5       30.14R WCI  29
GRAND RAPIDS   PTCLDY    36  31  82 CALM      30.13R
IONIA          FAIR      35  32  87 CALM      30.12S
KALAMAZOO      CLEAR     33  30  88 CALM      30.14R
LUDINGTON      PTCLDY    31  28  91 CALM      30.15S
MARSHALL       CLEAR     28  28  99 CALM      30.13R FOG
MOUNT PLEASANT FAIR      33  32  96 CALM      30.14R
MUSKEGON       CLEAR     38  32  79 CALM      30.13S
SOUTH HAVEN    CLEAR     32  30  94 CALM      30.14R
$$
MIZ016>042-281200-
NORTHERN LOWER MICHIGAN

CITY           SKY/WX    TMP DP  RH WIND       PRES   REMARKS
BEAVER ISLAND  CLOUDY    38  33  82 CALM      30.17R
BELLAIRE       CLOUDY    40  35  83 CALM      30.16R
CADILLAC       CLEAR     28  26  91 CALM      30.13R
CHARLEVOIX     CLOUDY    37  34  88 N3        30.19R
FRANKFORT      CLEAR     33  29  83 CALM      30.16R
GAYLORD        CLOUDY    41  35  79 N3        30.13R
GRAYLING       CLEAR     30  28  92 CALM      30.14R
HARBOR SPRINGS CLOUDY    37  34  89 CALM      30.15R
HOUGHTON LAKE  CLEAR     30  29  96 CALM      30.14R
MANISTEE       CLOUDY    30  28  93 CALM      30.16R
OSCODA         MOCLDY    38  34  85 CALM      30.13R
PELLSTON       CLOUDY    42  36  79 CALM      30.16R
ROGERS CITY    CLOUDY    42  36  80 CALM      30.15S
TRAVERSE CITY  PTCLDY    32  29  88 CALM      30.15R
$$
MIZ007>008-015-281200-
EASTERN UPPER MICHIGAN

CITY           SKY/WX    TMP DP  RH WIND       PRES   REMARKS
KINROSS        CLEAR     36  34  93 CALM      30.15R
MACKINAC ISLAN CLOUDY    39  34  82 CALM      30.15R
NEWBERRY       CLOUDY    35  33  89 CALM      30.15R
S. S. MARIE    CLOUDY    42  34  73 NE3       30.15R
MUNISING         N/A     30  26  85 S6        30.17R WCI  24
$$
MIZ004>006-011>014-085-281200-
CENTRAL UPPER MICHIGAN

CITY           SKY/WX    TMP DP  RH WIND       PRES   REMARKS
MANISTIQUE     CLEAR     32  30  92 N5        30.16R WCI  27
ESCANABA       CLEAR     30  27  86 CALM      30.17S
MENOMINEE      CLEAR     32  28  86 NW5       30.17R WCI  27
SAWYER-GWINN   CLEAR     28  27  93 CALM      30.15R
$$
MIZ001>003-009>011-084-281200-
WESTERN UPPER MICHIGAN

CITY           SKY/WX    TMP DP  RH WIND       PRES   REMARKS
IRON MOUNTAIN  CLEAR     28  25  88 CALM      30.15S
HOUGHTON       CLEAR     33  28  81 NW3       30.13S
COPPER HARBOR    N/A     36  30  79 W8        30.13S WCI  30
IRONWOOD       CLEAR     30  28  93 CALM      30.14R
$$

ABBREVIATIONS USED IN REMARKS
   TC - TEMPERATURE IN CELSIUS
  WCI - WIND CHILL INDEX
   HX - HEAT INDEX
  VSB - VISIBILITY




USA.gov is the U.S. government's official web portal to all federal, state and local government web resources and services.